map of MAA home
Great Circle Mapper logo
MAA - Airport
Location
City:  Chennai/Madras, India
Name:Meenambakkam
ICAO / IATA:VOMM / MAA

Details
Type:Airport (Aerodrome, Airfield)
Use:Public/Civil, International (customs port of entry)
Latitude:12°59'40"N (12.994414)
Longitude:80°10'50"E (80.180517)
Datum:WGS 1984
Elevation:52 ft (16 m)
Runways:2
Longest:12001 × 148 ft (3658 × 45 m), paved

Time
Time Zone:UTC+5:30
Local Time:

Weather
METAR:VOMM 311240Z 24010KT 6000 SCT020 FEW025TCU BKN100 35/21 Q1001 NOSIG
TAF:VOMM 310900Z 3112/0118 16010KT 6000 SCT020 SCT100
TEMPO 3112/3118 4000 -TSRA/RA SCT015 FEW025CB BKN080
BECMG 3119/3120 22005KT
BECMG 0104/0105 27010G20KT
BECMG 0111/0112 16010KT
TEMPO 0112/0118 SCT020 FEW025CB SCT100

Related Locations
Nearby:
Farthest:SEII: 11410 mi / 18362 km
Puerto Villamil [General Villamil], Isabela Island, Galápagos Islands, EC

Find:

   beyond  
but within

Other Information
Maps:
NOTAMs:
Links:
Sources:

  
flag of India   

Sectional Chart

Flight Planning
at skyvector.com

Satellite Image

Google Maps Satellite View

 

Copyright © 2004-2014 Karl L. Swartz. All rights reserved.
The Great Circle Mapper name and logo are trademarks of the Great Circle Mapper.
All other trademarks mentioned herein belong to their respective owners.
Please see credits for attibutions and further copyright information.

  Follow gcmap on Facebook Follow gcmap on Twitter

hCard Microformat

Geo Microformat